Weather History for Clinton, MO

Change the Weather History Date:

Friday, January 18, 2013

  Actual Average (KSZL) Record (KSZL)
Temperature  
Mean Temperature 44 °F -  
Max Temperature 55 °F 37 °F 53 °F (2006)
Min Temperature 32 °F 20 °F 3 °F (1997)
Degree Days  
Heating Degree Days 22    
Moisture  
Dew Point 29 °F    
Average Humidity 62    
Maximum Humidity 87    
Minimum Humidity 36    
Precipitation  
Precipitation 0.00 in - - ()
Sea Level Pressure  
Sea Level Pressure 30.28 in    
Wind  
Wind Speed 8 mph (SSW)    
Max Wind Speed 20 mph    
Max Gust Speed 31 mph    
Visibility 10 miles    
Events      
Averages and records for this station are not official NWS values.
T = Trace of Precipitation, MM = Missing Value Source: NWS Daily Summary

Daily Weather History Graph

Daily Weather History Graph

Search for Another Location

Airport:

Trip Planner

Search our weather history database for the weather conditions in past years. The results will help you decide how hot, cold, wet, or windy it might be!

Date:

Astronomy

Jan. 18, 2013 Rise Set
Actual Time 7:29 AM CST 5:21 PM CST
Civil Twilight 7:00 AM CST 5:50 PM CST
Nautical Twilight 6:27 AM CST 6:22 PM CST
Astronomical Twilight 5:56 AM CST 6:54 PM CST
Moon 11:14 AM CST (1/18) 12:06 AM CST (1/18)
Length of Visible Light 10h 50m
Length of Day
9h 52m
Waxing Crescent, 47% of the Moon is Illuminated
Jan 18
Waxing Crescent
Jan 18
First Quarter
Jan 26
Full
Feb 3
Last Quarter
Feb 10
New

Hourly Weather History & Observations

Time (CST) Temp. Windchill Dew Point Humidity Pressure Visibility Wind Dir Wind Speed Gust Speed Precip Events Conditions
12:15 AM 32.0 °F - 28.4 °F 87% 30.45 in 10.0 mi Calm Calm - N/A   Clear
12:35 AM 32.0 °F 25.6 °F 28.4 °F 87% 30.45 in 10.0 mi South 6.9 mph - N/A   Clear
12:55 AM 32.0 °F 25.6 °F 28.4 °F 87% 30.45 in 10.0 mi South 6.9 mph - N/A   Clear
1:15 AM 32.0 °F 26.4 °F 28.4 °F 87% 30.46 in 10.0 mi South 5.8 mph - N/A   Clear
1:35 AM 32.0 °F 26.4 °F 26.6 °F 80% 30.45 in 10.0 mi South 5.8 mph - N/A   Clear
1:55 AM 32.0 °F 28.7 °F 26.6 °F 80% 30.46 in 10.0 mi South 3.5 mph - N/A   Clear
2:15 AM 32.0 °F 28.7 °F 26.6 °F 80% 30.46 in 10.0 mi South 3.5 mph - N/A   Clear
2:35 AM 32.0 °F 26.4 °F 26.6 °F 80% 30.46 in 10.0 mi South 5.8 mph - N/A   Clear
2:55 AM 32.0 °F 25.6 °F 26.6 °F 80% 30.46 in 10.0 mi South 6.9 mph - N/A   Clear
3:15 AM 32.0 °F 24.8 °F 28.4 °F 87% 30.45 in 10.0 mi South 8.1 mph - N/A   Clear
3:35 AM 32.0 °F 24.8 °F 28.4 °F 87% 30.44 in 10.0 mi South 8.1 mph - N/A   Clear
3:55 AM 32.0 °F 24.8 °F 28.4 °F 87% 30.44 in 10.0 mi South 8.1 mph - N/A   Clear
4:15 AM 32.0 °F 25.6 °F 28.4 °F 87% 30.43 in 10.0 mi South 6.9 mph - N/A   Clear
4:35 AM 32.0 °F 26.4 °F 28.4 °F 87% 30.42 in 10.0 mi South 5.8 mph - N/A   Clear
4:55 AM 32.0 °F 25.6 °F 28.4 °F 87% 30.42 in 10.0 mi South 6.9 mph - N/A   Clear
5:15 AM 32.0 °F 24.2 °F 28.4 °F 87% 30.41 in 10.0 mi South 9.2 mph - N/A   Clear
5:35 AM 32.0 °F 24.8 °F 28.4 °F 87% 30.40 in 10.0 mi South 8.1 mph - N/A   Clear
5:55 AM 32.0 °F 23.6 °F 26.6 °F 80% 30.40 in 10.0 mi South 10.4 mph - N/A   Clear
6:15 AM 32.0 °F 24.2 °F 26.6 °F 80% 30.40 in 10.0 mi South 9.2 mph - N/A   Clear
6:35 AM 32.0 °F 24.2 °F 26.6 °F 80% 30.39 in 10.0 mi South 9.2 mph - N/A   Clear
6:55 AM 33.8 °F 26.4 °F 26.6 °F 75% 30.39 in 10.0 mi South 9.2 mph - N/A   Clear
7:15 AM 32.0 °F 24.2 °F 26.6 °F 80% 30.39 in 10.0 mi South 9.2 mph - N/A   Clear
7:35 AM 33.8 °F 25.8 °F 28.4 °F 81% 30.39 in 9.0 mi South 10.4 mph - N/A   Clear
7:55 AM 33.8 °F 25.8 °F 28.4 °F 81% 30.38 in 10.0 mi South 10.4 mph - N/A   Clear
8:15 AM 35.6 °F 28.0 °F 28.4 °F 75% 30.38 in 10.0 mi South 10.4 mph 16.1 mph N/A   Clear
8:35 AM 35.6 °F 28.0 °F 28.4 °F 75% 30.38 in 10.0 mi South 10.4 mph - N/A   Clear
8:55 AM 37.4 °F 29.3 °F 28.4 °F 70% 30.38 in 10.0 mi South 12.7 mph - N/A   Clear
9:15 AM 39.2 °F 32.0 °F 30.2 °F 70% 30.38 in 10.0 mi South 11.5 mph 17.3 mph N/A   Clear
9:35 AM 41.0 °F 33.9 °F 30.2 °F 65% 30.38 in 10.0 mi South 12.7 mph - N/A   Clear
9:55 AM 42.8 °F 37.0 °F 30.2 °F 61% 30.37 in 9.0 mi South 10.4 mph - N/A   Clear
10:15 AM 44.6 °F 38.8 °F 30.2 °F 57% 30.36 in 10.0 mi SSW 11.5 mph 16.1 mph N/A   Clear
10:35 AM 44.6 °F 38.8 °F 30.2 °F 57% 30.35 in 9.0 mi South 11.5 mph 17.3 mph N/A   Clear
10:55 AM 46.4 °F 41.1 °F 32.0 °F 57% 30.34 in 10.0 mi SSW 11.5 mph 19.6 mph N/A   Clear
11:15 AM 48.2 °F - 32.0 °F 54% 30.33 in 10.0 mi South 15.0 mph 21.9 mph N/A   Clear
11:35 AM 48.2 °F - 32.0 °F 54% 30.31 in 9.0 mi South 16.1 mph 21.9 mph N/A   Clear
11:55 AM 48.2 °F - 32.0 °F 54% 30.30 in 10.0 mi SSW 12.7 mph 19.6 mph N/A   Clear
12:15 PM 51.8 °F - 32.0 °F 47% 30.27 in 10.0 mi SSW 18.4 mph 25.3 mph N/A   Clear
12:35 PM 51.8 °F - 32.0 °F 47% 30.25 in 9.0 mi SSW 12.7 mph 21.9 mph N/A   Clear
12:55 PM 53.6 °F - 32.0 °F 44% 30.24 in 10.0 mi SSW 12.7 mph - N/A   Clear
1:15 PM 53.6 °F - 32.0 °F 44% 30.22 in 10.0 mi SSW 15.0 mph 23.0 mph N/A   Clear
1:35 PM 55.4 °F - 32.0 °F 41% 30.21 in 10.0 mi SW 13.8 mph 26.5 mph N/A   Clear
1:55 PM 55.4 °F - 32.0 °F 41% 30.20 in 10.0 mi SW 19.6 mph 31.1 mph N/A   Clear
2:15 PM 55.4 °F - 32.0 °F 41% 30.20 in 10.0 mi SW 16.1 mph 25.3 mph N/A   Clear
2:35 PM 55.4 °F - 32.0 °F 41% 30.18 in 10.0 mi SW 15.0 mph 25.3 mph N/A   Clear
2:55 PM 55.4 °F - 32.0 °F 41% 30.17 in 9.0 mi SSW 12.7 mph 24.2 mph N/A   Clear
3:15 PM 55.4 °F - 30.2 °F 38% 30.16 in 10.0 mi SSW 17.3 mph 23.0 mph N/A   Clear
3:35 PM 55.4 °F - 30.2 °F 38% 30.15 in 9.0 mi SSW 17.3 mph 23.0 mph N/A   Clear
3:55 PM 55.4 °F - 30.2 °F 38% 30.14 in 10.0 mi SSW 15.0 mph 21.9 mph N/A   Clear
4:15 PM 55.4 °F - 28.4 °F 36% 30.14 in 9.0 mi SSW 17.3 mph 26.5 mph N/A   Clear
4:35 PM 55.4 °F - 28.4 °F 36% 30.14 in 9.0 mi SSW 15.0 mph 23.0 mph N/A   Clear
4:55 PM 53.6 °F - 28.4 °F 38% 30.14 in 10.0 mi SSW 11.5 mph 20.7 mph N/A   Clear
5:15 PM 53.6 °F - 28.4 °F 38% 30.14 in 10.0 mi SW 13.8 mph 18.4 mph N/A   Clear
5:35 PM 51.8 °F - 28.4 °F 41% 30.14 in 10.0 mi SW 9.2 mph - N/A   Clear
5:55 PM 46.4 °F 42.9 °F 28.4 °F 50% 30.15 in 10.0 mi SW 6.9 mph - N/A   Clear
6:15 PM 46.4 °F - 28.4 °F 50% 30.14 in 10.0 mi Calm Calm - N/A   Clear
6:35 PM 46.4 °F 45.2 °F 28.4 °F 50% 30.14 in 10.0 mi SW 3.5 mph - N/A   Clear
6:55 PM 46.4 °F 43.5 °F 30.2 °F 53% 30.15 in 10.0 mi SW 5.8 mph - N/A   Clear
7:15 PM 46.4 °F 41.9 °F 30.2 °F 53% 30.14 in 10.0 mi SSW 9.2 mph - N/A   Clear
7:35 PM 46.4 °F 42.9 °F 30.2 °F 53% 30.14 in 10.0 mi SSW 6.9 mph - N/A   Clear
7:55 PM 46.4 °F 43.5 °F 28.4 °F 50% 30.15 in 10.0 mi SSW 5.8 mph - N/A   Clear
8:15 PM 44.6 °F 40.7 °F 28.4 °F 53% 30.15 in 10.0 mi SW 6.9 mph - N/A   Clear
8:35 PM 44.6 °F 39.7 °F 28.4 °F 53% 30.14 in 10.0 mi SSW 9.2 mph 16.1 mph N/A   Clear
8:55 PM 46.4 °F 41.1 °F 30.2 °F 53% 30.14 in 10.0 mi SSW 11.5 mph 18.4 mph N/A   Clear
9:15 PM 46.4 °F 41.1 °F 30.2 °F 53% 30.14 in 10.0 mi SSW 11.5 mph 18.4 mph N/A   Clear
9:35 PM 46.4 °F 41.5 °F 30.2 °F 53% 30.13 in 10.0 mi SSW 10.4 mph 17.3 mph N/A   Clear
9:55 PM 46.4 °F 41.1 °F 30.2 °F 53% 30.13 in 10.0 mi SSW 11.5 mph 17.3 mph N/A   Clear
10:15 PM 46.4 °F 40.7 °F 30.2 °F 53% 30.13 in 10.0 mi SSW 12.7 mph - N/A   Clear
10:35 PM 46.4 °F 40.7 °F 30.2 °F 53% 30.12 in 10.0 mi SSW 12.7 mph 19.6 mph N/A   Clear
10:55 PM 44.6 °F 38.1 °F 30.2 °F 57% 30.12 in 10.0 mi SSW 13.8 mph 18.4 mph N/A   Clear
11:15 PM 44.6 °F 38.4 °F 30.2 °F 57% 30.12 in 10.0 mi SSW 12.7 mph 20.7 mph N/A   Clear
11:35 PM 44.6 °F 38.8 °F 30.2 °F 57% 30.11 in 10.0 mi SSW 11.5 mph 18.4 mph N/A   Clear
11:55 PM 44.6 °F 38.1 °F 30.2 °F 57% 30.10 in 10.0 mi SSW 13.8 mph 20.7 mph N/A   Clear